time_stamp(utc),avg(mph),gust(mph),direction(deg),12m_air_temp(f),sonic_u(cm/s),sonic_v(cm/s),sonic_w(cm/s),pressure,2m_air_temp(f),pyranometer(W/m^2)
"2021-10-29 00:01:23+00",17.9,19.9,,,779,220,60,1012.97,56,0
"2021-10-29 00:06:23+00",15.2,18.2,,,675,58,45,1013.06,55.9,0
"2021-10-29 00:11:23+00",13.0,15.0,,,581,-8,34,1013.14,55.9,0
"2021-10-29 00:16:23+00",11.5,13.5,,,529,54,38,1013.04,56,0
"2021-10-29 00:21:23+00",13.9,16.9,,,629,18,57,1012.9,56.2,0
"2021-10-29 00:26:23+00",15.7,17.7,,,716,20,31,1012.88,56.2,0
"2021-10-29 00:31:23+00",15.5,17.5,,,713,-56,50,1013.09,56.2,0
"2021-10-29 00:36:23+00",14.6,16.6,,,660,-79,22,1013.16,56.2,0
"2021-10-29 00:41:23+00",14.5,16.5,,,661,-80,35,1013.02,56.2,0
"2021-10-29 00:46:23+00",18.1,19.1,,,815,-49,44,1013.02,56.3,0
"2021-10-29 00:51:23+00",17.6,20.6,,56.4,805,-165,28,1013.13,56.2,0
"2021-10-29 00:56:23+00",18.1,19.1,,,829,2,49,1013.23,56.2,0
"2021-10-29 01:01:23+00",18.5,19.5,,,837,9,37,1013.12,56.2,0
"2021-10-29 01:06:23+00",17.6,21.6,,,810,59,67,1013.12,56.2,0
"2021-10-29 01:11:23+00",17.7,20.7,,56.3,802,-19,47,1013.19,56.2,0
"2021-10-29 01:16:23+00",14.3,16.3,,,651,-39,27,1013.32,56.1,0
"2021-10-29 01:21:23+00",17.4,20.4,,56.3,790,-141,21,1013.34,56.1,0
"2021-10-29 01:26:23+00",14.9,16.9,,,661,60,68,1013.54,56,0
"2021-10-29 01:31:23+00",15.9,18.9,,,717,75,57,1013.45,56,0
"2021-10-29 01:36:23+00",17.7,19.7,,,805,41,55,1013.39,56,0
"2021-10-29 01:41:23+00",12.3,14.3,,,553,103,44,1013.55,56,0
"2021-10-29 01:46:23+00",12.8,16.8,,,589,80,44,1013.68,56,0
"2021-10-29 01:51:23+00",16.0,18.0,,,718,54,43,1013.81,56,0
"2021-10-29 01:56:23+00",16.7,18.7,,,759,39,33,1013.93,56,0
"2021-10-29 02:01:23+00",14.1,16.1,,,625,141,34,1013.98,56,0
"2021-10-29 02:06:23+00",14.7,16.7,,,664,74,40,1013.87,56,0
"2021-10-29 02:11:23+00",12.7,13.7,,,566,32,45,1013.88,56.1,0
"2021-10-29 02:16:23+00",14.2,17.2,,,640,-82,25,1013.88,56.1,0
"2021-10-29 02:21:23+00",12.8,14.8,,,582,5,36,1013.97,56.2,0
"2021-10-29 02:26:23+00",11.9,13.9,,,542,-31,35,1013.9,56.2,0
"2021-10-29 02:31:23+00",12.6,15.6,,,569,19,23,1013.76,56.2,0
"2021-10-29 02:36:23+00",13.8,15.8,,,621,-74,22,1013.7,56.3,0
"2021-10-29 02:41:23+00",13.7,15.7,,,627,-20,30,1013.64,56.4,0
"2021-10-29 02:46:23+00",13.6,14.6,,,625,-52,23,1013.72,56.4,0
"2021-10-29 02:51:23+00",13.2,16.2,,,587,-83,34,1013.54,56.5,0
"2021-10-29 02:56:23+00",12.6,15.6,,,541,-143,30,1013.63,56.5,0
"2021-10-29 03:01:23+00",12.6,14.6,,,570,-9,32,1013.56,56.6,0
"2021-10-29 03:06:23+00",15.8,17.8,,,714,-60,23,1013.53,56.6,0
"2021-10-29 03:11:23+00",15.7,18.7,,,714,-27,35,1013.34,56.6,0
"2021-10-29 03:16:23+00",13.7,15.7,,,615,14,28,1013.29,56.5,0
"2021-10-29 03:21:23+00",13.2,15.2,,,587,17,40,1013.27,56.5,0
"2021-10-29 03:26:23+00",14.9,16.9,,,692,-100,27,1013.12,56.5,0
"2021-10-29 03:31:23+00",12.3,14.3,,,550,-79,39,1013.14,56.6,0
"2021-10-29 03:36:23+00",12.1,15.1,,,551,-33,24,1013.14,56.5,0
"2021-10-29 03:41:23+00",14.2,16.2,,,639,-28,43,1013.08,56.5,0
"2021-10-29 03:46:23+00",14.2,17.2,,56.6,641,-107,34,1012.95,56.4,0
"2021-10-29 03:51:23+00",14.4,16.4,,,669,-47,24,1012.96,56.3,0
"2021-10-29 03:56:23+00",12.9,14.9,,56.7,586,-54,41,1012.83,56.3,0
"2021-10-29 04:01:23+00",13.7,16.7,,,610,15,47,1012.9,56.4,0
"2021-10-29 04:06:23+00",13.7,17.7,,,623,-16,42,1013.05,56.4,0
"2021-10-29 04:11:23+00",14.0,16.0,,56.8,622,45,43,1013.02,56.4,0
"2021-10-29 04:16:23+00",15.5,18.5,,,700,112,51,1013.03,56.5,0
"2021-10-29 04:21:23+00",15.1,17.1,,56.8,683,-25,34,1012.97,56.5,0
"2021-10-29 04:26:23+00",16.6,18.6,,56.7,754,77,36,1012.97,56.5,0
"2021-10-29 04:31:23+00",15.4,17.4,,,694,101,44,1012.91,56.4,0
"2021-10-29 04:36:23+00",17.2,19.2,,,783,50,59,1012.73,56.5,0
"2021-10-29 04:41:23+00",18.7,20.7,,,859,24,37,1012.53,56.4,0
"2021-10-29 04:46:23+00",19.0,21.0,,,860,86,50,1012.39,56.3,0
"2021-10-29 04:51:23+00",16.9,18.9,,56.4,766,80,70,1012.35,56.3,0
"2021-10-29 04:56:23+00",15.4,17.4,,,704,30,57,1012.31,56.3,0
"2021-10-29 05:01:23+00",16.3,19.3,,,739,31,85,1012.3,56.3,0
"2021-10-29 05:06:23+00",19.9,23.9,,,875,230,64,1012.27,56.3,0
"2021-10-29 05:11:23+00",20.4,22.4,,,885,254,70,1012.18,56.2,0
"2021-10-29 05:16:23+00",19.1,24.1,,,847,191,60,1012.09,56.2,0
"2021-10-29 05:21:23+00",20.9,22.9,,,926,269,59,1011.97,56,0
"2021-10-29 05:26:23+00",19.5,22.5,,,857,206,49,1011.9,55.9,0
"2021-10-29 05:31:23+00",17.5,20.5,,,759,260,81,1011.79,55.8,0
"2021-10-29 05:36:23+00",17.5,21.5,,,731,297,40,1011.85,55.6,0
"2021-10-29 05:41:23+00",18.9,20.9,,,845,168,77,1011.87,55.6,0
"2021-10-29 05:46:23+00",18.9,20.9,,,859,122,56,1011.85,55.6,0
"2021-10-29 05:51:23+00",15.9,18.9,,,696,158,63,1011.88,55.7,0
"2021-10-29 05:56:23+00",20.2,23.2,,,902,196,51,1011.84,55.7,0
"2021-10-29 06:01:23+00",15.6,17.6,,,690,196,51,1011.72,55.8,0
"2021-10-29 06:06:23+00",19.4,22.4,,,854,228,61,1011.64,55.9,0
"2021-10-29 06:11:23+00",18.5,20.5,,,795,254,57,1011.59,56.1,0
"2021-10-29 06:16:23+00",18.3,20.3,,,782,294,51,1011.4,56.3,0
"2021-10-29 06:21:23+00",18.4,20.4,,,793,273,57,1011.41,56.3,0
"2021-10-29 06:26:23+00",17.8,20.8,,,764,262,92,1011.41,56.4,0
"2021-10-29 06:31:23+00",19.8,22.8,,,895,174,53,1011.35,56.6,0
"2021-10-29 06:36:23+00",21.8,25.8,,56.7,955,308,84,1011.34,56.6,0
"2021-10-29 06:41:23+00",21.4,24.4,,,957,263,85,1011.22,56.5,0
"2021-10-29 06:46:23+00",22.3,25.3,,,961,320,56,1011.26,56.5,0
"2021-10-29 06:51:23+00",22.1,24.1,,,973,261,63,1011.17,56.5,0
"2021-10-29 06:56:23+00",20.6,23.6,,56.9,920,281,39,1011.21,56.6,0
"2021-10-29 07:01:23+00",20.4,24.4,,,900,287,59,1011.35,56.7,0
"2021-10-29 07:06:23+00",20.2,23.2,,56.9,900,236,69,1011.48,56.7,0
"2021-10-29 07:11:23+00",20.2,22.2,,,888,235,67,1011.54,56.6,0
"2021-10-29 07:16:23+00",19.7,22.7,,,871,212,55,1011.65,56.7,0
"2021-10-29 07:21:23+00",22.6,24.6,,,1031,183,68,1011.65,56.8,0
"2021-10-29 07:26:23+00",23.1,25.1,,,1035,109,62,1011.5,56.8,0
"2021-10-29 07:31:23+00",22.2,24.2,,,1000,116,59,1011.3,56.8,0
"2021-10-29 07:36:23+00",20.3,23.3,,,921,177,69,1011.48,56.8,0
"2021-10-29 07:41:23+00",20.6,24.6,,,895,175,75,1011.47,56.8,0
"2021-10-29 07:46:23+00",23.6,24.6,,,1054,222,73,1011.26,56.9,0
"2021-10-29 07:51:23+00",21.5,24.5,,,948,275,66,1011.08,56.8,0
"2021-10-29 07:56:23+00",23.0,27.0,,,1028,270,58,1010.98,56.8,0
"2021-10-29 08:01:23+00",22.2,24.2,,,977,281,67,1011.11,56.8,0
"2021-10-29 08:06:23+00",21.2,24.2,,,925,267,67,1011.23,56.9,0
"2021-10-29 08:11:23+00",22.7,25.7,,,1042,138,71,1011.43,56.9,0
"2021-10-29 08:16:23+00",21.6,23.6,,,961,216,78,1011.48,57,0
"2021-10-29 08:21:23+00",21.3,23.3,,,964,150,69,1011.41,57.1,0
"2021-10-29 08:26:23+00",21.6,24.6,,,977,176,65,1011.34,57.1,0
"2021-10-29 08:31:23+00",21.3,25.3,,,938,216,77,1011.26,57.2,0
"2021-10-29 08:36:23+00",23.0,25.0,,,1048,115,77,1011.14,57.2,0
"2021-10-29 08:41:23+00",22.0,25.0,,,984,132,79,1011.28,57.2,0
"2021-10-29 08:46:23+00",19.7,21.7,,57.8,888,95,58,1011.35,57.3,0
"2021-10-29 08:51:23+00",20.7,23.7,,57.8,933,61,62,1011.24,57.4,0
"2021-10-29 08:56:23+00",19.1,23.1,,,860,128,56,1011.31,57.4,0
"2021-10-29 09:01:23+00",20.3,22.3,,,922,15,54,1011.24,57.4,0
"2021-10-29 09:06:23+00",21.1,24.1,,57.8,944,206,72,1011.11,57.5,0
"2021-10-29 09:11:23+00",16.2,18.2,,,753,105,78,1011.19,57.5,0
"2021-10-29 09:16:23+00",21.2,22.2,,,965,9,52,1011.16,57.5,0
"2021-10-29 09:21:23+00",23.0,26.0,,,1047,123,60,1011.08,57.6,0
"2021-10-29 09:26:23+00",19.9,20.9,,,884,74,70,1011.1,57.6,0
"2021-10-29 09:31:23+00",20.9,23.9,,,939,211,74,1011.17,57.6,0
"2021-10-29 09:36:23+00",20.0,23.0,,,888,39,63,1011.06,57.7,0
"2021-10-29 09:41:23+00",22.7,25.7,,58.2,1017,72,65,1010.95,57.7,0
"2021-10-29 09:46:23+00",20.6,23.6,,,928,127,75,1010.78,57.7,0
"2021-10-29 09:51:23+00",20.8,23.8,,,939,185,101,1010.69,57.7,0
"2021-10-29 09:56:23+00",21.9,23.9,,58.3,987,131,47,1010.55,57.7,0
"2021-10-29 10:01:23+00",22.0,24.0,,,999,80,68,1010.33,57.7,0
"2021-10-29 10:06:23+00",22.3,26.3,,,1010,182,79,1010.3,57.8,0
"2021-10-29 10:11:23+00",23.9,26.9,,,1095,63,67,1010.49,57.7,0
"2021-10-29 10:16:23+00",20.3,26.3,,,924,70,63,1010.55,57.8,0
"2021-10-29 10:21:23+00",21.0,25.0,,,943,57,77,1010.57,57.7,0
"2021-10-29 10:26:23+00",23.0,26.0,,,1063,148,69,1010.3,57.6,0
"2021-10-29 10:31:23+00",20.5,26.5,,,939,91,67,1010.25,57.6,0
"2021-10-29 10:36:23+00",21.0,24.0,,,963,127,78,1009.99,57.7,0
"2021-10-29 10:41:23+00",23.0,26.0,,,1070,147,57,1009.96,57.6,0
"2021-10-29 10:46:23+00",23.4,26.4,,,1057,99,63,1009.69,57.6,0
"2021-10-29 10:51:23+00",22.6,24.6,,,1026,94,60,1009.92,57.5,0
"2021-10-29 10:56:23+00",26.0,29.0,,,1196,175,77,1009.9,57.5,0
"2021-10-29 11:01:23+00",21.2,23.2,,,958,165,59,1009.98,57.6,0
"2021-10-29 11:06:23+00",21.7,25.7,,,971,137,75,1009.9,57.5,0
"2021-10-29 11:11:23+00",21.5,23.5,,,991,59,66,1009.94,57.5,0
"2021-10-29 11:16:23+00",22.6,26.6,,,996,163,74,1009.79,57.4,0
"2021-10-29 11:21:23+00",24.5,26.5,,,1112,89,67,1009.83,57.4,0
"2021-10-29 11:26:23+00",23.8,27.8,,,1103,88,74,1009.71,57.4,0
"2021-10-29 11:31:23+00",25.0,31.0,,,1124,252,89,1009.89,57.4,0
"2021-10-29 11:36:23+00",26.3,31.3,,58,1195,227,83,1009.87,57.3,0
"2021-10-29 11:41:23+00",22.8,26.8,,58,1014,128,64,1009.86,57.4,0
"2021-10-29 11:46:23+00",24.9,28.9,,,1138,30,62,1009.89,57.4,0
"2021-10-29 11:51:23+00",24.1,30.1,,,1109,43,66,1009.67,57.4,0
"2021-10-29 11:56:23+00",24.1,28.1,,,1084,60,64,1009.7,57.4,0
"2021-10-29 12:01:23+00",26.5,31.5,,,1204,149,89,1009.81,57.4,0
"2021-10-29 12:06:23+00",24.8,26.8,,,1128,70,63,1009.88,57.2,0
"2021-10-29 12:11:23+00",22.6,27.6,,,1030,59,70,1010.1,57.1,0
"2021-10-29 12:16:23+00",23.4,26.4,,,1061,33,79,1009.94,56.7,0
"2021-10-29 12:21:23+00",24.3,28.3,,,1105,58,50,1009.65,56.4,0
"2021-10-29 12:26:23+00",25.1,30.1,,,1141,150,67,1009.58,56.3,0
"2021-10-29 12:31:23+00",29.0,33.0,,,1297,44,78,1009.46,56.2,0
"2021-10-29 12:36:23+00",25.5,29.5,,,1182,107,84,1009.39,56.3,0.2
"2021-10-29 12:41:23+00",26.8,30.8,,,1204,167,79,1009.24,56.5,0.4
"2021-10-29 12:46:23+00",26.1,32.1,,,1159,186,91,1009.12,56.8,0.3
"2021-10-29 12:51:23+00",23.5,28.5,,,1061,100,78,1009.12,57.1,4.7
"2021-10-29 12:56:23+00",28.4,32.4,,,1282,201,89,1009.15,57.3,13.2
"2021-10-29 13:01:23+00",28.3,32.3,,,1279,131,84,1009.06,57.6,14.6
"2021-10-29 13:06:23+00",28.8,31.8,,,1285,235,72,1008.98,57.8,66.5
"2021-10-29 13:11:23+00",27.0,31.0,,,1245,116,85,1009.02,58.4,58.1
"2021-10-29 13:16:23+00",25.8,29.8,,,1159,50,99,1009.23,58.5,29
"2021-10-29 13:21:23+00",28.3,34.3,,58.2,1292,140,89,1009.32,58.3,25.5
"2021-10-29 13:26:23+00",30.6,34.6,,,1385,153,99,1009.17,58.3,40.4
"2021-10-29 13:31:23+00",28.6,33.6,,,1279,154,101,1008.96,58.6,66.5
"2021-10-29 13:36:23+00",27.0,30.0,,,1214,81,62,1009.14,58.7,58.6
"2021-10-29 13:41:23+00",27.2,32.2,,,1234,-33,78,1009.1,58.9,64.5
"2021-10-29 13:46:23+00",28.9,31.9,,,1321,37,90,1009,59,35.8
"2021-10-29 13:51:23+00",29.3,34.3,,,1339,226,89,1008.83,58.9,39.9
"2021-10-29 13:56:23+00",29.0,33.0,,,1331,123,95,1008.88,59,56.8
"2021-10-29 14:01:23+00",29.5,34.5,,,1340,141,93,1008.96,59.2,91.6
"2021-10-29 14:06:23+00",27.1,31.1,,59.3,1237,90,96,1008.82,59.9,207.9
"2021-10-29 14:11:23+00",27.7,32.7,,,1233,94,111,1008.72,60.7,213.9
"2021-10-29 14:16:23+00",28.4,32.4,,,1276,109,132,1008.75,60.8,131.6
"2021-10-29 14:21:23+00",25.9,28.9,,,1178,75,105,1008.88,60.6,119.4
"2021-10-29 14:26:23+00",31.6,36.6,,,1413,127,106,1008.96,60.3,145.1
"2021-10-29 14:31:23+00",29.3,33.3,,,1343,-17,69,1009.18,60,88
"2021-10-29 14:36:23+00",26.2,29.2,,,1198,-33,79,1009.15,59.7,75.2
"2021-10-29 14:41:23+00",31.1,34.1,,,1424,123,77,1009.01,59.8,82.6
"2021-10-29 14:46:23+00",29.3,33.3,,,1343,70,102,1009.08,60.1,102.4
"2021-10-29 14:51:23+00",28.5,34.5,,,1298,117,107,1009.1,60.2,165.6
"2021-10-29 14:56:23+00",29.7,34.7,,59.5,1371,124,94,1009.04,60.4,163.8
"2021-10-29 15:01:23+00",29.5,33.5,,,1343,-45,74,1009.05,61.2,209.6
"2021-10-29 15:06:23+00",29.9,33.9,,,1392,92,92,1008.78,61.2,66.9
"2021-10-29 15:11:23+00",31.8,34.8,,,1470,-20,53,1008.54,60.8,139.4
"2021-10-29 15:16:23+00",32.3,35.3,,,1465,74,75,1008.39,60.8,185.8
"2021-10-29 15:21:23+00",32.7,34.7,,,1476,7,71,1008.31,60.9,113.6
"2021-10-29 15:26:23+00",28.3,34.3,,,1293,-2,97,1008.39,60.8,141.4
"2021-10-29 15:31:23+00",31.6,38.6,,,1437,-140,53,1008.21,61.2,182.7
"2021-10-29 15:36:23+00",33.2,39.2,,,1518,49,103,1008.12,61,82
"2021-10-29 15:41:23+00",35.4,40.4,,,1610,58,103,1007.8,60.8,119.4
"2021-10-29 15:46:23+00",30.9,34.9,,,1403,99,87,1007.99,61,280.8
"2021-10-29 15:51:23+00",35.7,40.7,,,1607,150,102,1007.93,61.1,98.2
"2021-10-29 15:56:23+00",31.3,37.3,,,1407,-16,104,1008.06,61,67.7
"2021-10-29 16:01:23+00",34.3,39.3,,,1585,20,98,1007.9,60.9,79.2
"2021-10-29 16:06:23+00",29.5,34.5,,,1356,-34,68,1007.87,60.7,75.5
"2021-10-29 16:11:23+00",34.0,39.0,,,1530,-42,91,1007.66,60.6,77.6
"2021-10-29 16:16:23+00",34.1,40.1,,,1518,74,110,1007.55,60.7,88.8
"2021-10-29 16:21:23+00",35.5,38.5,,,1612,84,114,1007.39,60.7,89.7
"2021-10-29 16:26:23+00",30.2,35.2,,,1360,27,129,1007.37,60.7,64.3
"2021-10-29 16:31:23+00",30.8,36.8,,,1411,61,90,1007.44,60.5,44.7
"2021-10-29 16:36:23+00",35.1,39.1,,,1590,91,105,1007.27,60.4,45
"2021-10-29 16:41:23+00",31.0,36.0,,,1412,90,129,1007.04,60.4,48.9
"2021-10-29 16:46:23+00",36.4,41.4,,,1663,107,130,1006.84,60.5,45.2
"2021-10-29 16:51:23+00",34.5,37.5,,,1583,-72,84,1006.7,60.5,47.8
"2021-10-29 16:56:23+00",34.9,40.9,,,1625,2,114,1006.62,60.5,28.6
"2021-10-29 17:01:23+00",35.3,39.3,,,1609,-115,105,1006.5,60.5,38.1
"2021-10-29 17:06:23+00",37.5,41.5,,,1695,101,116,1006.3,60.5,46.1
"2021-10-29 17:11:23+00",32.9,37.9,,,1500,-48,114,1006.31,60.6,47.7
"2021-10-29 17:16:23+00",35.1,41.1,,,1595,147,124,1006.22,60.6,39.2
"2021-10-29 17:21:23+00",36.6,42.6,,,1672,39,119,1006.11,60.5,24.9
"2021-10-29 17:26:23+00",35.8,41.8,,,1656,105,134,1006.03,60.4,20.2
"2021-10-29 17:31:23+00",38.7,42.7,,,1732,132,143,1006.06,60.4,2.6
"2021-10-29 17:36:23+00",34.6,37.6,,,1571,78,124,1005.85,60.5,11.1
"2021-10-29 17:41:23+00",37.7,42.7,,,1696,-62,112,1005.75,60.4,13.1
"2021-10-29 17:46:23+00",34.5,40.5,,,1542,14,122,1005.82,60.4,9.8
"2021-10-29 17:51:23+00",31.3,37.3,,,1412,76,125,1005.88,60.4,0.7
"2021-10-29 17:56:23+00",36.1,40.1,,60.5,1641,-141,92,1005.65,60.4,0
"2021-10-29 18:01:23+00",34.4,38.4,,,1574,62,115,1005.54,60.4,0.1
"2021-10-29 18:06:23+00",35.0,37.0,,,1590,-98,107,1005.39,60.4,6.8
"2021-10-29 18:11:23+00",36.7,39.7,,,1653,79,121,1005.27,60.5,0.9
"2021-10-29 18:16:23+00",39.7,43.7,,,1810,40,111,1005,60.6,0
"2021-10-29 18:21:23+00",39.8,42.8,,,1813,111,136,1004.91,60.6,6.9
"2021-10-29 18:26:23+00",39.3,43.3,,,1780,41,127,1004.87,60.6,0
"2021-10-29 18:31:23+00",41.6,45.6,,,1867,125,137,1004.64,60.5,0.5
"2021-10-29 18:36:23+00",41.6,48.6,,,1905,-29,110,1004.52,60.4,0
"2021-10-29 18:41:23+00",40.5,43.5,,,1839,84,124,1004.58,60.3,0
"2021-10-29 18:46:23+00",41.4,45.4,,,1881,44,145,1004.39,60.2,0
"2021-10-29 18:51:23+00",38.7,45.7,,,1747,-41,139,1004.2,60.3,0
"2021-10-29 18:56:23+00",42.1,47.1,,,1921,159,143,1004.17,60.3,0.1
"2021-10-29 19:01:23+00",39.8,43.8,,,1823,77,137,1004.07,,0.9
"2021-10-29 19:06:23+00",41.0,45.0,,,1867,11,102,1004.04,,1
"2021-10-29 19:11:23+00",40.6,46.6,,,1826,83,168,1004,59.9,0
"2021-10-29 19:16:23+00",43.1,47.1,,,1956,102,137,1003.82,60.2,38
"2021-10-29 19:21:23+00",38.9,46.9,,,1782,13,138,1003.7,60.5,1.2
"2021-10-29 19:26:23+00",40.4,45.4,,,1867,57,135,1003.7,60.5,0
"2021-10-29 19:31:23+00",39.3,43.3,,,1786,-3,127,1003.64,60.5,0
"2021-10-29 19:36:23+00",43.1,47.1,,,1969,68,146,1003.46,60.6,0
"2021-10-29 19:41:23+00",43.9,48.9,,,2008,-170,83,1003.46,60.7,0
"2021-10-29 19:46:23+00",40.6,46.6,,,1832,51,123,1003.31,60.7,0
"2021-10-29 19:51:23+00",41.6,46.6,,,1880,81,140,1003.37,60.7,0
"2021-10-29 19:56:23+00",45.2,52.2,,,2095,-72,121,1003.1,60.7,0
"2021-10-29 20:01:23+00",44.4,50.4,,,2009,-39,171,1003.09,60.7,0
"2021-10-29 20:06:23+00",42.2,49.2,,,1928,-129,150,1003.03,60.7,0
"2021-10-29 20:11:23+00",45.7,51.7,,,2073,-37,114,1002.91,60.8,0
"2021-10-29 20:16:23+00",44.8,50.8,,,2050,64,120,1002.97,60.8,0
"2021-10-29 20:21:23+00",39.7,44.7,,,1777,5,130,1003.09,60.8,0
"2021-10-29 20:26:23+00",34.7,39.7,,,1577,-96,105,1003.01,60.9,0
"2021-10-29 20:31:23+00",43.5,47.5,,,1981,-25,120,1002.73,61,0
"2021-10-29 20:36:23+00",43.0,47.0,,,1947,-68,112,1002.68,61,0
"2021-10-29 20:41:23+00",41.6,45.6,,,1893,-18,127,1002.69,61.1,0
"2021-10-29 20:46:23+00",40.3,49.3,,,1845,-102,119,1002.51,61.1,0
"2021-10-29 20:51:23+00",41.2,47.2,,,1876,-39,150,1002.41,61.2,0
"2021-10-29 20:56:23+00",46.6,50.6,,,2146,-57,133,1002.27,61.1,0
"2021-10-29 21:01:23+00",41.9,46.9,,,1889,-103,127,1002.09,61.2,0
"2021-10-29 21:06:23+00",47.1,52.1,,,2151,12,149,1001.98,61.2,0
"2021-10-29 21:11:23+00",39.7,46.7,,,1833,-100,93,1001.99,61.2,0
"2021-10-29 21:16:23+00",40.3,46.3,,,1807,-29,151,1001.92,,0
"2021-10-29 21:21:23+00",44.7,52.7,,,2029,-196,113,1001.85,,0
"2021-10-29 21:26:23+00",43.4,47.4,,,1976,-62,132,1001.78,,0
"2021-10-29 21:31:23+00",43.1,50.1,,,1969,-16,152,1001.57,,0
"2021-10-29 21:36:23+00",43.8,51.8,,,1982,-83,126,1001.25,,0
"2021-10-29 21:41:23+00",47.7,50.7,,,2188,-75,157,1001.15,,0
"2021-10-29 21:46:23+00",45.8,49.8,,,2075,-126,139,1001.17,,0
"2021-10-29 21:51:23+00",46.8,51.8,,,2114,-149,130,1000.93,,0
"2021-10-29 21:56:23+00",41.0,43.0,,,1862,-81,127,1001.08,,0
"2021-10-29 22:01:23+00",46.6,53.6,,,2110,6,155,1000.82,,0
"2021-10-29 22:06:23+00",49.8,53.8,,,2284,-1,132,1000.42,,0
"2021-10-29 22:11:23+00",49.7,57.7,,,1595,17,516,1000.47,,0
"2021-10-29 22:16:23+00",42.5,48.5,,,597,-26,843,1000.78,,0
"2021-10-29 22:21:23+00",51.4,56.4,,,82,-161,1396,1000.37,,0
"2021-10-29 22:26:23+00",41.0,47.0,,,1843,-86,140,1000.52,,0
"2021-10-29 22:31:23+00",48.0,55.0,,,2157,-71,153,1000.17,,0
"2021-10-29 22:36:23+00",47.8,54.8,,,2231,-20,133,1000.17,,0
"2021-10-29 22:41:23+00",46.6,50.6,,,2133,-96,150,999.83,,0
"2021-10-29 22:46:23+00",48.8,55.8,,,2211,-124,155,999.88,,0
"2021-10-29 22:51:23+00",51.7,56.7,,,2371,-33,164,999.65,,0
"2021-10-29 22:56:23+00",49.4,55.4,,,2265,-92,169,999.46,,0
"2021-10-29 23:01:23+00",47.0,55.0,,,2157,-115,144,999.41,,0
"2021-10-29 23:06:23+00",48.0,58.0,,,2185,-170,137,999.25,,0
"2021-10-29 23:11:23+00",50.5,57.5,,,2089,-212,227,998.98,,0
"2021-10-29 23:16:23+00",48.9,53.9,,,1453,-135,559,998.72,,0
"2021-10-29 23:21:23+00",47.6,51.6,,,3027,-128,-356,999,,0
"2021-10-29 23:26:23+00",51.4,58.4,,,4588,-53,-1030,998.68,,0
"2021-10-29 23:31:23+00",45.2,53.2,,,4020,-62,-908,998.68,,0
"2021-10-29 23:36:23+00",52.0,57.0,,,4170,-81,-870,998.55,,0
"2021-10-29 23:41:23+00",46.8,52.8,,,3997,-139,-943,998.72,,0
"2021-10-29 23:46:23+00",49.4,53.4,,,4056,-222,-910,998.41,,0
"2021-10-29 23:51:23+00",46.2,50.2,,,3754,-124,-824,998.49,,0
"2021-10-29 23:56:23+00",46.7,54.7,,,3882,28,-559,998.47,,0
